Temperature
17 18 18 18 18 18 18 18 18 18 18 18 18 18 18 18 18 18 18 18 18 18 18 18 18 18 18 18 18 18 18 18 18 18 18 18 18 18 18 18 18 18 18
18 17 17 18 18 18 18 17 18 18 18 18 18 17 17 17 17 17 17 17 17 17 17 18 18 18 18 18 18 18 18 18 18 18 18 18 18 18 18 18 18 18 18
18 17 17 17 17 17 17 17 17 17 17 17 17 17 17 17 17 17 17 17 17 17 17 17 17 17 17 17 18 18 18 18 18 18 18 18 18 18 18 18 18 18 18
18 17 17 17 17 17 17 17 17 17 17 17 17 17 17 16 16 16 16 16 16 17 17 17 17 17 17 17 17 17 17 17 18 18 18 18 18 18 18 18 18 18 18
18 18 17 17 17 17 17 17 17 17 17 17 16 16 16 16 16 16 16 16 16 16 16 17 17 17 17 17 17 17 17 17 17 17 18 18 18 18 18 18 18 18 18
18 17 17 17 17 17 17 17 17 16 16 16 16 16 16 16 16 16 16 16 16 16 16 16 17 17 17 17 17 17 17 17 17 17 17 17 18 18 18 18 18 18 18
18 17 17 17 17 17 17 17 16 16 16 16 16 16 16 16 15 15 16 16 16 16 16 16 16 17 17 17 17 17 17 17 17 17 17 17 18 18 18 18 18 18 18
18 17 17 17 17 17 17 16 16 16 16 16 16 16 15 15 15 15 15 15 15 16 16 16 16 16 17 17 17 17 17 17 17 17 17 17 17 18 18 18 18 18 18
18 17 17 17 17 17 16 16 16 16 16 16 16 16 15 15 15 15 15 15 15 15 16 16 16 16 16 17 17 17 17 17 17 17 17 17 17 17 18 18 18 18 18
18 18 17 17 17 17 16 16 16 16 16 16 16 16 15 15 15 15 15 15 15 15 15 16 16 16 16 16 17 17 17 17 17 17 17 17 17 17 17 17 18 18 18
18 18 17 17 17 17 17 16 16 16 16 16 16 16 16 15 15 15 15 15 15 15 15 16 16 16 16 16 16 16 16 17 17 17 17 17 17 17 17 17 17 17 18
18 18 18 17 17 17 17 16 16 16 16 16 16 16 16 16 15 15 15 15 15 15 15 15 16 16 16 16 16 16 16 17 17 17 17 17 17 17 17 17 17 17 17
18 18 18 18 17 17 17 17 16 16 16 16 16 16 16 16 15 15 15 15 15 15 15 16 16 16 16 16 16 16 16 16 16 16 16 16 17 17 17 17 17 17 17
18 18 18 18 17 17 17 17 16 16 16 16 16 16 16 16 16 15 15 15 15 15 16 16 16 16 16 16 16 16 16 16 16 16 16 16 16 17 17 17 17 17 17
19 18 18 18 17 17 17 17 17 16 16 16 16 16 16 16 15 15 15 15 15 15 15 16 16 16 16 16 16 16 16 16 16 16 16 16 16 16 16 17 17 17 17
19 18 18 18 18 17 17 17 17 16 16 16 16 16 16 16 15 15 15 15 15 15 15 16 16 16 16 16 16 16 16 16 16 16 16 16 16 16 16 16 16 17 17
19 18 18 18 18 17 17 17 17 16 16 16 16 16 16 15 15 15 15 15 15 15 15 16 16 16 16 16 16 16 16 16 16 16 16 16 16 16 16 16 16 16 17
19 19 18 18 18 17 17 17 17 16 16 16 16 16 15 15 15 15 15 15 15 15 16 16 16 16 16 16 16 16 16 16 16 16 16 16 16 16 16 16 16 16 16
19 19 18 18 18 17 17 17 17 16 16 16 16 16 15 15 15 15 15 15 15 15 16 16 16 16 16 16 16 16 16 16 15 15 16 16 16 16 16 16 16 16 16
19 19 18 18 18 17 17 17 17 16 16 16 16 16 15 15 15 15 15 15 15 15 15 16 16 16 16 16 16 15 15 15 15 15 15 15 15 15 15 15 16 16 16
19 19 19 18 18 18 17 17 17 16 16 16 16 16 15 15 15 15 15 15 15 15 15 15 16 16 16 16 16 15 15 15 15 15 15 15 15 15 15 15 15 15 15
19 19 19 18 18 18 17 17 17 16 16 16 16 16 16 15 15 15 15 15 15 15 15 15 15 16 16 16 16 16 15 15 15 15 15 15 15 15 15 15 15 15 15
19 19 19 18 18 18 17 17 17 16 16 16 16 16 16 15 15 15 15 15 15 15 15 15 15 15 16 15 16 16 15 15 15 15 15 15 15 15 15 15 15 15 15
20 19 19 18 18 18 18 17 17 17 16 16 16 16 16 15 15 15 15 15 15 15 15 15 15 15 15 15 15 15 15 15 15 14 14 14 15 15 15 15 15 15 15
20 19 19 19 18 18 18 17 17 17 17 16 16 16 16 15 15 15 15 15 15 15 15 15 15 15 15 15 15 15 15 15 15 15 14 14 14 14 14 14 14 14 15
20 19 19 19 18 18 18 18 17 17 17 17 16 16 16 16 15 15 15 15 15 15 15 15 15 15 15 15 15 15 15 15 15 15 14 14 14 14 14 14 14 14 14
Wind_Speed
2 4 10 11 11 11 12 12 12 13 13 14 14 14 14 14 13 13 13 13 12 11 11 10 10 9 9 9 8 8 8 8 7 7 7 7 8 8 8 8 7 6 6
5 7 10 11 12 12 12 13 13 13 13 13 13 13 13 13 12 12 12 12 11 10 10 10 9 8 8 7 7 7 7 7 6 5 6 7 7 7 7 7 6 6 6
7 8 10 12 12 13 13 13 13 13 13 13 12 12 12 11 11 11 10 10 10 10 9 9 8 7 7 6 6 6 6 6 5 4 5 4 5 7 7 6 6 6 6
9 9 10 12 13 13 13 13 13 13 12 12 12 11 11 11 10 10 9 9 8 8 8 7 6 6 5 5 5 5 6 6 5 4 4 4 4 6 6 6 6 6 6
9 10 12 13 14 14 13 13 13 12 11 11 11 10 10 9 9 9 8 8 7 7 6 5 5 5 4 4 4 5 6 6 5 5 4 5 4 5 6 6 6 6 6
8 10 13 14 14 14 13 13 12 11 10 10 9 9 8 8 7 7 7 6 6 5 4 4 3 3 3 3 4 5 6 6 5 4 4 4 4 5 6 6 6 6 6
7 9 12 14 14 13 12 12 11 9 9 8 8 7 6 6 6 6 6 5 5 4 3 3 2 2 2 3 4 5 6 5 5 3 3 3 5 5 6 5 5 5 6
8 9 11 13 13 12 11 10 9 8 8 7 6 6 5 4 4 4 5 4 4 3 3 2 2 2 2 3 4 5 5 4 3 2 2 3 5 6 5 5 5 5 5
9 8 8 10 11 11 10 9 8 7 6 5 5 4 4 3 3 3 3 3 3 3 2 2 2 2 3 4 5 5 5 4 2 1 3 4 6 6 6 5 4 4 4
6 6 6 8 8 8 8 7 7 6 4 3 3 2 2 2 1 1 1 2 2 2 3 3 3 4 5 5 5 5 4 4 3 2 3 4 6 6 5 5 4 4 4
6 5 5 6 6 7 6 5 5 3 2 2 3 2 1 0 1 2 2 1 3 3 4 5 5 5 5 5 5 4 3 3 3 3 3 5 6 6 5 5 4 4 4
7 6 5 5 6 6 5 4 2 1 2 3 3 4 3 1 0 1 3 3 4 5 5 5 5 5 5 5 5 4 3 3 3 3 4 6 6 5 5 4 4 4 4
8 8 7 6 6 5 3 4 2 1 2 4 4 4 5 5 3 3 4 5 6 6 6 7 6 5 4 3 3 3 4 4 4 4 4 6 6 5 5 4 4 4 4
7 7 6 5 5 5 5 4 3 3 3 4 4 6 6 4 3 3 3 4 5 5 5 5 4 5 4 3 4 5 5 5 5 5 5 6 6 6 5 5 5 4 4
7 6 6 6 6 5 5 4 5 5 5 7 8 7 7 4 2 3 3 4 5 5 4 4 4 5 4 4 5 5 5 6 6 6 5 6 6 6 6 6 5 5 4
7 7 6 7 6 7 5 4 4 6 8 10 10 9 9 7 4 4 4 4 5 6 5 4 4 4 3 4 4 5 6 6 6 6 6 6 6 7 7 6 6 6 5
7 7 8 7 7 8 7 6 6 8 10 9 9 11 11 9 7 6 4 4 5 7 7 6 6 5 4 5 5 5 5 5 6 6 6 6 6 7 7 7 7 7 7
8 8 8 9 9 8 7 6 7 8 9 8 10 11 11 11 10 7 4 4 6 8 6 4 4 5 5 5 5 5 4 5 5 6 6 6 6 6 7 8 9 9 9
9 9 8 8 8 8 7 7 7 8 7 8 9 10 10 11 11 8 5 5 8 6 4 4 5 4 4 4 5 5 5 5 4 5 5 6 6 6 7 8 10 11 10
8 9 8 7 7 7 6 5 5 5 4 7 7 8 9 10 10 9 6 6 7 5 5 5 5 5 4 3 5 6 5 5 4 5 4 5 6 7 7 8 9 10 13
8 8 8 7 6 6 4 4 4 3 2 3 4 7 9 9 10 9 5 5 5 5 5 5 4 6 5 3 5 5 5 6 7 6 4 4 5 6 7 8 8 9 10
8 8 7 7 7 6 4 4 3 3 2 1 3 5 8 9 9 8 6 4 4 5 6 6 5 4 4 4 3 4 4 5 5 6 5 5 5 6 6 7 8 9 9
9 9 8 7 7 6 6 5 4 4 4 3 3 3 4 7 8 8 7 5 4 5 5 5 4 5 4 5 4 4 4 1 2 4 5 6 6 5 5 6 8 8 9
9 8 8 8 7 7 7 7 6 4 3 1 1 1 3 6 7 8 7 7 5 4 5 5 5 4 4 3 3 4 3 3 3 2 4 5 6 6 6 6 7 8 9
10 9 9 8 7 6 7 7 7 4 3 2 2 3 3 4 6 7 7 7 5 4 5 6 6 6 4 4 3 2 4 4 3 3 2 4 4 4 5 5 6 7 8
9 9 9 9 6 6 7 7 7 7 6 5 3 3 2 2 3 5 6 6 5 4 4 5 5 7 5 6 5 4 3 3 2 3 2 1 2 3 4 4 5 7 8
Wind_Direction
77 96 105 104 102 100 99 98 96 94 93 92 90 87 85 85 84 84 84 82 79 78 76 76 75 76 76 74 72 71 70 72 76 79 79 79 78 77 79 80 77 68 67
128 105 107 106 104 102 100 98 95 95 92 91 90 88 87 85 84 83 82 81 78 77 76 73 71 73 73 70 66 62 60 58 68 74 75 79 79 78 80 79 77 74 64
110 102 103 104 104 103 101 98 95 93 91 91 90 89 88 87 85 82 80 79 78 77 76 73 70 68 69 64 55 50 46 41 53 66 77 90 86 85 83 78 74 68 62
111 105 106 105 104 102 101 99 96 94 92 91 91 90 89 88 84 80 78 77 77 74 71 68 68 64 61 55 43 35 28 25 40 62 75 99 96 91 86 81 72 65 57
107 108 112 110 107 104 102 99 97 96 95 95 93 92 90 87 83 78 75 75 76 73 69 63 59 57 53 42 27 18 21 24 49 65 76 94 96 95 92 86 74 66 57
114 115 117 113 110 108 105 102 100 99 98 99 98 95 91 88 86 82 78 74 72 71 66 59 50 46 41 23 9 8 16 23 57 72 95 109 107 99 93 87 78 69 59
124 125 125 121 118 115 112 109 106 105 104 101 98 96 93 91 87 82 78 75 71 68 60 56 47 36 18 358 352 358 11 31 67 83 91 113 115 104 93 86 79 71 64
137 137 134 130 127 123 120 117 116 113 110 106 101 100 98 92 85 82 82 78 71 63 57 48 35 18 352 336 336 346 3 28 72 87 104 125 122 108 97 89 78 72 66
144 141 141 139 135 133 131 128 124 119 114 110 104 97 102 105 90 85 88 80 67 56 54 33 357 339 330 327 330 340 358 24 86 121 122 126 120 107 99 91 79 71 64
148 150 155 155 150 148 145 141 131 124 117 106 100 103 123 132 128 106 87 71 46 27 7 341 324 318 320 324 327 336 10 45 89 109 124 131 117 107 98 88 81 73 66
158 168 170 172 172 169 161 155 141 118 94 54 37 39 64 136 265 275 298 342 2 356 348 341 337 328 327 334 338 353 40 73 104 115 129 125 114 105 96 86 81 75 71
172 181 181 175 179 181 176 149 142 75 30 21 32 45 56 92 242 295 322 348 359 2 353 346 346 343 344 348 357 31 83 114 120 118 126 119 108 99 89 84 85 77 77
173 174 175 174 171 168 155 134 125 69 42 41 46 61 75 76 61 37 19 8 7 9 7 0 1 359 1 4 23 61 96 113 121 114 119 113 102 89 78 77 79 73 73
145 154 157 153 148 144 124 112 112 87 59 47 45 65 81 72 58 44 33 20 15 14 18 13 10 15 32 49 79 83 88 106 119 114 109 104 94 80 68 66 66 69 67
125 133 141 137 130 121 106 100 92 78 64 57 53 56 77 83 68 50 39 30 20 24 28 21 21 36 42 49 78 90 91 103 114 107 101 96 87 70 61 58 61 63 65
125 123 115 113 114 107 98 92 85 77 68 59 54 56 70 77 71 57 43 31 24 28 37 40 36 45 41 53 57 69 85 95 95 94 84 74 68 63 58 54 59 58 61
130 119 115 113 102 98 99 95 87 80 74 63 57 60 63 66 67 65 51 32 26 36 43 44 41 46 50 55 56 60 75 84 88 86 82 69 61 58 53 49 49 54 57
128 122 118 114 104 102 100 95 91 84 75 65 60 58 58 61 65 66 53 33 35 44 41 42 39 47 45 52 57 53 56 67 74 82 78 69 61 54 49 48 48 48 52
133 125 115 115 111 105 100 96 92 84 74 66 60 55 55 59 62 65 56 39 46 46 34 43 43 52 54 55 68 56 46 50 50 68 64 57 56 58 52 48 47 45 47
134 127 124 119 115 108 96 88 76 63 53 58 59 56 58 57 59 61 56 44 49 48 36 41 50 46 57 60 73 58 39 35 40 46 49 47 49 54 52 50 48 46 48
133 131 132 129 130 122 111 105 97 83 56 45 53 59 58 58 60 61 56 46 48 54 44 44 54 52 41 45 68 45 23 28 41 36 33 39 40 43 50 52 53 51 45
148 143 139 138 137 136 135 134 133 126 102 70 41 48 54 60 63 67 64 55 49 56 48 45 53 60 39 40 86 78 36 14 14 23 27 40 40 42 42 49 55 55 49
154 156 152 150 139 137 132 111 91 70 54 40 34 27 30 57 63 69 70 70 58 62 59 53 61 75 64 35 55 112 112 112 354 1 17 27 33 37 32 48 51 50 47
162 159 151 148 139 136 130 128 130 127 133 173 162 63 27 49 61 69 72 72 65 59 58 53 62 70 82 58 34 48 97 137 118 34 358 7 25 37 37 46 48 48 46
159 157 150 143 139 137 133 135 131 130 144 135 103 85 51 33 48 64 73 74 68 61 59 57 59 61 69 78 66 62 63 56 69 108 55 355 8 13 26 32 40 39 39
154 151 147 144 144 141 136 136 136 140 138 126 122 114 73 31 29 51 70 70 68 65 61 60 62 66 67 71 68 67 82 84 76 92 102 35 10 353 11 20 27 27 30
Height
1537 1536 1536 1536 1536 1536 1536 1536 1536 1536 1536 1536 1536 1536 1536 1536 1536 1536 1536 1537 1537 1537 1537 1537 1538 1538 1538 1538 1538 1538 1538 1538 1538 1538 1538 1538 1538 1538 1537 1537 1536 1536 1535
1537 1537 1537 1537 1536 1536 1537 1537 1537 1537 1536 1536 1536 1536 1536 1536 1536 1536 1536 1536 1537 1537 1537 1537 1537 1538 1538 1538 1539 1539 1539 1539 1539 1538 1538 1538 1538 1538 1537 1537 1536 1536 1535
1537 1538 1538 1537 1537 1537 1537 1537 1537 1537 1537 1537 1537 1536 1536 1536 1536 1536 1536 1536 1536 1536 1537 1537 1537 1537 1538 1538 1539 1539 1539 1539 1539 1539 1539 1538 1538 1538 1538 1537 1537 1536 1535
1538 1538 1538 1538 1538 1538 1538 1538 1538 1538 1538 1537 1537 1537 1537 1537 1537 1536 1536 1536 1536 1536 1536 1537 1537 1537 1538 1538 1538 1539 1539 1539 1539 1539 1539 1539 1539 1538 1538 1537 1537 1536 1535
1539 1539 1539 1539 1539 1539 1539 1539 1539 1539 1538 1538 1538 1538 1537 1537 1537 1537 1536 1536 1536 1536 1536 1536 1537 1537 1537 1538 1538 1539 1539 1539 1539 1539 1539 1539 1539 1539 1538 1538 1537 1536 1535
1540 1540 1540 1540 1540 1540 1540 1540 1540 1539 1539 1539 1539 1539 1538 1538 1538 1537 1537 1536 1536 1536 1536 1536 1536 1536 1537 1538 1538 1539 1539 1539 1539 1540 1540 1539 1539 1539 1539 1538 1537 1536 1535
1541 1542 1542 1542 1542 1542 1541 1541 1541 1541 1541 1540 1540 1540 1540 1539 1539 1538 1537 1537 1536 1536 1536 1536 1536 1536 1537 1537 1538 1539 1539 1539 1539 1540 1540 1540 1540 1539 1539 1538 1538 1537 1535
1543 1543 1543 1544 1544 1543 1543 1543 1543 1542 1542 1542 1542 1541 1541 1540 1539 1539 1538 1537 1537 1536 1536 1536 1536 1536 1537 1537 1538 1539 1539 1539 1540 1540 1540 1540 1540 1540 1539 1538 1538 1537 1536
1545 1545 1545 1546 1546 1545 1545 1545 1545 1544 1544 1543 1543 1542 1542 1541 1541 1540 1539 1538 1537 1537 1537 1536 1536 1537 1537 1537 1538 1538 1539 1539 1540 1540 1540 1541 1540 1540 1539 1538 1538 1537 1536
1547 1547 1548 1548 1548 1547 1547 1547 1547 1546 1545 1545 1544 1544 1543 1542 1542 1541 1540 1539 1538 1538 1537 1537 1537 1537 1537 1537 1538 1538 1539 1540 1540 1540 1541 1541 1540 1540 1539 1538 1538 1537 1536
1549 1549 1550 1549 1549 1549 1549 1548 1548 1548 1547 1546 1546 1545 1544 1543 1543 1542 1541 1540 1539 1539 1538 1538 1537 1537 1538 1538 1538 1539 1539 1540 1541 1541 1541 1541 1541 1540 1539 1539 1538 1537 1536
1550 1550 1551 1551 1551 1551 1550 1550 1550 1549 1548 1547 1547 1546 1545 1544 1543 1543 1542 1541 1540 1540 1539 1539 1538 1538 1538 1538 1539 1539 1539 1540 1541 1541 1541 1541 1541 1540 1540 1539 1538 1537 1537
1550 1551 1552 1552 1552 1552 1552 1552 1551 1550 1550 1549 1548 1547 1546 1545 1544 1544 1543 1542 1541 1541 1540 1539 1539 1539 1539 1539 1539 1540 1540 1541 1541 1541 1541 1541 1541 1540 1540 1539 1538 1538 1537
1551 1552 1553 1553 1553 1553 1554 1553 1553 1552 1551 1550 1549 1548 1547 1546 1546 1545 1544 1543 1542 1541 1541 1540 1540 1540 1540 1540 1541 1541 1541 1542 1542 1542 1542 1542 1541 1541 1540 1539 1539 1538 1537
1552 1553 1553 1554 1554 1555 1555 1554 1554 1553 1552 1551 1550 1549 1549 1548 1547 1546 1545 1544 1543 1542 1542 1541 1541 1541 1541 1541 1542 1542 1543 1543 1543 1543 1543 1543 1542 1542 1541 1540 1539 1539 1538
1552 1553 1554 1555 1556 1556 1556 1556 1555 1554 1553 1552 1552 1551 1550 1549 1548 1547 1546 1545 1544 1543 1543 1542 1542 1542 1543 1543 1543 1544 1544 1544 1544 1544 1544 1544 1543 1542 1542 1541 1540 1539 1539
1553 1554 1555 1556 1556 1557 1557 1557 1556 1556 1555 1554 1553 1552 1551 1550 1549 1548 1547 1546 1545 1544 1544 1544 1543 1544 1544 1545 1545 1545 1545 1546 1546 1546 1546 1545 1544 1544 1543 1542 1541 1541 1540
1554 1555 1556 1557 1557 1558 1558 1558 1557 1557 1556 1555 1555 1554 1553 1552 1551 1550 1549 1547 1547 1546 1545 1545 1545 1545 1545 1546 1546 1547 1547 1547 1547 1547 1547 1547 1546 1545 1544 1544 1543 1542 1541
1555 1556 1557 1558 1558 1559 1559 1559 1558 1558 1557 1557 1556 1555 1555 1554 1553 1551 1550 1549 1548 1547 1547 1546 1546 1546 1547 1547 1548 1548 1549 1549 1549 1549 1549 1548 1548 1547 1546 1545 1545 1544 1543
1556 1557 1558 1559 1559 1560 1560 1560 1559 1559 1559 1558 1558 1557 1556 1555 1554 1553 1552 1551 1550 1549 1549 1548 1548 1548 1548 1549 1549 1550 1550 1551 1551 1551 1551 1550 1550 1549 1548 1547 1546 1545 1544
1556 1557 1558 1559 1560 1560 1561 1561 1560 1560 1560 1560 1559 1559 1558 1557 1556 1555 1554 1553 1552 1551 1550 1550 1550 1550 1550 1550 1551 1552 1552 1553 1553 1553 1552 1552 1551 1550 1550 1549 1548 1547 1546
1556 1557 1559 1559 1560 1561 1561 1562 1562 1561 1561 1561 1561 1560 1559 1559 1558 1557 1556 1555 1554 1553 1552 1552 1552 1551 1551 1552 1552 1553 1554 1556 1555 1555 1554 1554 1553 1552 1552 1551 1550 1549 1548
1556 1557 1559 1560 1561 1562 1562 1563 1563 1563 1563 1563 1562 1562 1561 1560 1560 1559 1558 1557 1556 1555 1554 1554 1553 1553 1553 1553 1554 1554 1555 1555 1556 1557 1556 1556 1555 1554 1554 1553 1552 1551 1550
1555 1557 1559 1560 1561 1562 1563 1563 1564 1564 1564 1564 1564 1563 1563 1562 1561 1560 1559 1559 1558 1557 1556 1556 1555 1555 1555 1555 1555 1555 1556 1556 1556 1558 1558 1557 1557 1556 1556 1555 1554 1553 1552
1554 1556 1558 1560 1561 1562 1563 1564 1564 1564 1565 1565 1565 1564 1564 1563 1563 1562 1561 1561 1560 1559 1559 1558 1558 1557 1557 1557 1557 1557 1557 1557 1557 1558 1558 1559 1559 1558 1558 1557 1556 1555 1554
1553 1555 1557 1559 1561 1562 1563 1564 1565 1565 1565 1565 1565 1565 1565 1565 1564 1564 1563 1563 1562 1561 1561 1560 1560 1559 1559 1559 1559 1558 1558 1558 1559 1559 1559 1560 1560 1560 1559 1559 1558 1557 1556